Simultaneous Nadir Overpasses (SNOs) Predictions

Prediction of SNOs between AQUA and METOP-C Satellite Orbit:

Table of predicted SNOs for the next 14.0 days since TLE Epoch: 6/7/2025
Index Date (AQUA) Time (AQUA) Lat,Lon (AQUA) SZA (AQUA ) Date (METOP-C) Time (METOP-C) Lat,Lon (METOP-C) SZA (METOP-C ) Distance(km) Time Diff (sec)
1 06/07/2025 15:48:32 -76.58, 125.59 126.30 06/07/2025 15:47:30 -76.60, 125.66 126.27 3.27 62
2 06/07/2025 16:37:52 76.64, -66.94 53.76 06/07/2025 16:38:10 76.63, -66.93 53.75 1.44 18
3 06/10/2025 04:36:47 -76.63, -66.58 126.46 06/10/2025 04:36:26 -76.60, -66.57 126.49 2.71 21
4 06/10/2025 05:26:06 76.65, 101.03 53.56 06/10/2025 05:27:05 76.67, 101.00 53.58 2.42 59
5 06/12/2025 16:35:43 76.60, -66.13 53.34 06/12/2025 16:34:42 76.59, -66.20 53.33 1.94 61
6 06/12/2025 17:25:02 -76.66, 101.31 126.60 06/12/2025 17:25:22 -76.65, 101.35 126.61 2.16 20
7 06/15/2025 05:23:57 76.62, 101.81 53.24 06/15/2025 05:23:38 76.62, 101.69 53.24 3.05 19
8 06/15/2025 06:13:16 -76.68, -90.74 126.71 06/15/2025 06:14:18 -76.68, -90.75 126.70 0.34 62
9 06/17/2025 17:22:52 -76.63, 102.09 126.83 06/17/2025 17:21:54 -76.64, 102.20 126.82 3.04 58
10 06/17/2025 18:12:11 76.67, -90.36 53.20 06/17/2025 18:12:34 76.65, -90.44 53.19 3.07 23
11 06/20/2025 06:11:05 -76.66, -90.00 126.84 06/20/2025 06:10:50 -76.66, -89.93 126.84 1.77 15



Historial Predications of SNOs between AQUA and METOP-C
